Regional Weather Roundup
Issued by NWS Northern Indiana

Home | Current Version | Previous Version | Graphics & Text | Print | Product List | Glossary On
Versions: 1 2 3 4 5 6 7 8 9 10 11 12 13 14 15 16 17 18 19 20 21 22 23 24 25 26 27 28 29 30 31 32 33 34 35 36 37 38 39 40 41 42 43 44 45 46 47 48 49 50
000
ASUS43 KIWX 280300
RWRIWX

KIWX WEATHER ROUNDUP
NATIONAL WEATHER SERVICE NORTHERN INDIANA
1100 PM EDT MON JUL 27 2015

NOTE: "FAIR" INDICATES FEW OR NO CLOUDS BELOW 12,000 FEET WITH NO
SIGNIFICANT WEATHER AND/OR OBSTRUCTIONS TO VISIBILITY.

* THESE STATIONS ARE NOT UNDER NWS QUALITY CONTROL. THEY ALSO MAY NOT
  REPORT WEATHER SUCH AS PRECIPITATION OR FOG.

INZ001>027-280400-
NORTHERN INDIANA

CITY           SKY/WX    TMP DP  RH WIND       PRES   REMARKS
GARY*          PTCLDY    75  70  83 E8        30.02R
SOUTH BEND     PTCLDY    72  64  76 CALM      30.04R
GOSHEN         PTCLDY    71  64  78 CALM      30.03R
ANGOLA*        CLEAR     70  61  73 CALM      30.05R
FORT WAYNE     PTCLDY    73  64  73 E7        30.03R
PERU/GRISSOM   MOCLDY    74  66  75 E5        30.02R

$$
INZ028>050-280400-
CENTRAL INDIANA

CITY           SKY/WX    TMP DP  RH WIND       PRES   REMARKS
LAFAYETTE      MOCLDY    74  68  81 NE5       30.00R
KOKOMO*        MOCLDY    73  66  78 E3        30.02R
MUNCIE*        MOCLDY    74  70  87 E5        30.02R
INDIANAPOLIS   MOCLDY    79  71  76 E6        30.00R

$$
MIZ043>046-050>051-056>058-064>065-071>073-077>080-280400-
SOUTHWEST LOWER MICHIGAN

CITY           SKY/WX    TMP DP  RH WIND       PRES   REMARKS
BATTLE CREEK   CLEAR     73  64  73 CALM      30.05R
BENTON HARBOR  PTCLDY    69  66  90 CALM      30.03R
COLDWATER*     CLEAR     68  63  84 CALM      30.05R
HILLSDALE*     CLEAR     68  66  96 CALM      30.06R
HOLLAND        CLEAR     71  66  84 CALM      30.04R
GRAND RAPIDS   CLEAR     77  68  73 CALM      30.04R
KALAMAZOO      CLEAR     72  64  76 CALM      30.05R
STURGIS*       CLEAR     70  64  83 CALM      30.05R
THREE RIVERS*  FAIR      69  65  86 CALM      30.05R

$$
OHZ001>008-015>018-024>025-280400-
NORTHWEST OHIO

CITY           SKY/WX    TMP DP  RH WIND       PRES   REMARKS
DEFIANCE       CLEAR     74  62  66 CALM      30.03R
FINDLAY        PTCLDY    74  60  61 E7        30.02R
TOLEDO EXPRESS PTCLDY    68  63  84 CALM      30.03R
TOLEDO METCALF MOCLDY    74  61  63 CALM      30.03R
LIMA           CLEAR     71  66  84 NE3       30.03R

$$
AND FOR LAKE MICHIGAN COASTAL AND OPEN LAKE BUOY OBSERVATIONS

STATION/POSITION TEMP    WIND        PRES    VSBY  WAVE
                 AIR SEA DIR/SP/G                  HT/PER
                 (F)     (DEG/KT/KT) (MB)    (MI)  (FT/S)
CALUMET HARBOR    75      40/  3/  5   N/A
MICHIGAN CITY     74      30/  8/  9   N/A
BURNS HARBOR      74      80/  8/  9 1016.6R
SAINT JOSEPH      75      10/  4/  8 1016.6R
4 MI NW BRIDGMAN  74 74   80/ 10/ 12   N/A           1/ 2
MICHIGAN CITY     75 75   80/  8/ 10   N/A           2/ 3

$$
&&



USA.gov is the U.S. government's official web portal to all federal, state and local government web resources and services.